TimeEDT,TemperatureF,Dew PointF,Humidity,Sea Level PressureIn,VisibilityMPH,Wind Direction,Wind SpeedMPH,Gust SpeedMPH,PrecipitationIn,Events,Conditions,WindDirDegrees,DateUTC
12:15 AM,75.2,71.6,89,30.05,10.0,Calm,Calm,-,N/A,,Clear,0,2013-07-29 04:15:00
12:35 AM,73.4,71.6,94,30.05,10.0,Calm,Calm,-,N/A,,Clear,0,2013-07-29 04:35:00
12:53 AM,75.9,73.0,91,30.03,-9999.0,Calm,Calm,-,N/A,,Unknown,0,2013-07-29 04:53:00
12:55 AM,73.4,71.6,94,30.05,10.0,Calm,Calm,-,N/A,,Clear,0,2013-07-29 04:55:00
1:15 AM,73.4,71.6,94,30.04,10.0,Calm,Calm,-,N/A,,Clear,0,2013-07-29 05:15:00
1:35 AM,73.4,71.6,94,30.04,7.0,Calm,Calm,-,N/A,,Clear,0,2013-07-29 05:35:00
1:53 AM,75.9,73.0,91,30.03,-9999.0,Calm,Calm,-,N/A,,Unknown,0,2013-07-29 05:53:00
1:55 AM,73.4,71.6,94,30.04,10.0,Calm,Calm,-,N/A,,Clear,0,2013-07-29 05:55:00
2:15 AM,73.4,71.6,94,30.04,7.0,Calm,Calm,-,N/A,,Mostly Cloudy,0,2013-07-29 06:15:00
2:35 AM,73.4,71.6,94,30.04,7.0,Calm,Calm,-,N/A,,Scattered Clouds,0,2013-07-29 06:35:00
2:53 AM,75.0,72.0,90,30.03,-9999.0,Calm,Calm,-,0.01,,Unknown,0,2013-07-29 06:53:00
2:55 AM,73.4,71.6,94,30.04,5.0,Calm,Calm,-,N/A,,Clear,0,2013-07-29 06:55:00
3:15 AM,71.6,71.6,100,30.05,4.0,Calm,Calm,-,N/A,,Clear,0,2013-07-29 07:15:00
3:53 AM,75.0,72.0,90,30.02,-9999.0,Calm,Calm,-,N/A,,Unknown,0,2013-07-29 07:53:00
3:55 AM,73.4,71.6,94,30.03,10.0,Calm,Calm,-,N/A,,Clear,0,2013-07-29 07:55:00
4:15 AM,73.4,71.6,94,30.03,7.0,Calm,Calm,-,N/A,,Clear,0,2013-07-29 08:15:00
4:35 AM,71.6,69.8,94,30.03,3.0,Calm,Calm,-,N/A,,Clear,0,2013-07-29 08:35:00
4:53 AM,75.0,72.0,90,30.02,-9999.0,Calm,Calm,-,N/A,,Unknown,0,2013-07-29 08:53:00
4:55 AM,73.4,71.6,94,30.04,5.0,Calm,Calm,-,N/A,,Clear,0,2013-07-29 08:55:00
5:15 AM,71.6,71.6,100,30.04,7.0,Calm,Calm,-,N/A,,Scattered Clouds,0,2013-07-29 09:15:00
5:53 AM,73.9,71.1,91,30.04,-9999.0,Calm,Calm,-,N/A,,Unknown,0,2013-07-29 09:53:00
5:55 AM,73.4,71.6,94,30.05,10.0,Calm,Calm,-,N/A,,Clear,0,2013-07-29 09:55:00
6:15 AM,71.6,69.8,94,30.06,4.0,Calm,Calm,-,N/A,,Clear,0,2013-07-29 10:15:00
6:35 AM,71.6,71.6,100,30.07,7.0,Calm,Calm,-,N/A,,Clear,0,2013-07-29 10:35:00
6:53 AM,73.9,71.1,91,30.06,-9999.0,Calm,Calm,-,0.02,,Unknown,0,2013-07-29 10:53:00
6:55 AM,71.6,69.8,94,30.08,5.0,Calm,Calm,-,N/A,,Clear,0,2013-07-29 10:55:00
7:15 AM,71.6,71.6,100,30.08,5.0,Calm,Calm,-,N/A,,Clear,0,2013-07-29 11:15:00
7:35 AM,71.6,71.6,100,30.08,4.0,Calm,Calm,-,N/A,,Clear,0,2013-07-29 11:35:00
7:53 AM,77.0,73.9,90,30.08,-9999.0,Calm,Calm,-,N/A,,Unknown,0,2013-07-29 11:53:00
7:55 AM,73.4,73.4,100,30.09,7.0,Calm,Calm,-,N/A,,Clear,0,2013-07-29 11:55:00
8:15 AM,75.2,73.4,94,30.10,7.0,Calm,Calm,-,N/A,,Clear,0,2013-07-29 12:15:00
8:35 AM,77.0,75.2,94,30.10,10.0,Calm,Calm,-,N/A,,Clear,0,2013-07-29 12:35:00
8:53 AM,82.9,75.0,77,30.10,-9999.0,NNE,3.5,-,N/A,,Unknown,30,2013-07-29 12:53:00
8:55 AM,78.8,75.2,89,30.11,10.0,Calm,Calm,-,N/A,,Clear,0,2013-07-29 12:55:00
9:15 AM,78.8,75.2,89,30.12,10.0,North,3.5,-,N/A,,Scattered Clouds,10,2013-07-29 13:15:00
9:35 AM,80.6,75.2,84,30.12,10.0,Calm,Calm,-,N/A,,Mostly Cloudy,0,2013-07-29 13:35:00
9:53 AM,82.9,75.0,77,30.11,-9999.0,WNW,3.5,-,N/A,,Unknown,290,2013-07-29 13:53:00
9:55 AM,80.6,73.4,79,30.12,10.0,WNW,3.5,-,N/A,,Overcast,300,2013-07-29 13:55:00
10:15 AM,80.6,75.2,84,30.12,10.0,NNW,5.8,-,N/A,,Scattered Clouds,330,2013-07-29 14:15:00
10:35 AM,82.4,73.4,74,30.12,10.0,NNW,3.5,-,N/A,,Scattered Clouds,340,2013-07-29 14:35:00
10:53 AM,86.0,73.0,65,30.11,-9999.0,NNW,3.5,-,N/A,,Unknown,330,2013-07-29 14:53:00
10:55 AM,82.4,71.6,70,30.13,10.0,Calm,Calm,-,N/A,,Clear,0,2013-07-29 14:55:00
11:15 AM,84.2,73.4,70,30.13,10.0,NNW,3.5,-,N/A,,Scattered Clouds,330,2013-07-29 15:15:00
11:35 AM,82.4,73.4,74,30.13,5.0,South,6.9,-,0.02,Rain,Light Rain,180,2013-07-29 15:35:00
11:53 AM,82.9,75.0,77,30.12,-9999.0,Variable,4.6,-,0.05,,Unknown,0,2013-07-29 15:53:00
11:55 AM,80.6,75.2,84,30.13,10.0,Calm,Calm,-,0.04,,Overcast,0,2013-07-29 15:55:00
12:15 PM,82.4,77.0,84,30.13,10.0,Calm,Calm,-,N/A,,Scattered Clouds,0,2013-07-29 16:15:00
12:35 PM,82.4,75.2,79,30.13,10.0,Calm,Calm,-,N/A,,Scattered Clouds,0,2013-07-29 16:35:00
12:53 PM,86.0,75.9,72,30.11,-9999.0,East,3.5,-,N/A,,Unknown,100,2013-07-29 16:53:00
12:55 PM,82.4,75.2,79,30.13,10.0,Calm,Calm,-,N/A,,Scattered Clouds,0,2013-07-29 16:55:00
1:15 PM,86.0,75.2,70,30.12,10.0,ESE,5.8,-,N/A,,Clear,120,2013-07-29 17:15:00
1:35 PM,86.0,73.4,66,30.12,10.0,SE,6.9,-,N/A,,Mostly Cloudy,130,2013-07-29 17:35:00
1:53 PM,87.1,73.9,65,30.10,-9999.0,ESE,6.9,-,N/A,,Unknown,120,2013-07-29 17:53:00
1:55 PM,84.2,73.4,70,30.11,10.0,SE,5.8,-,N/A,,Mostly Cloudy,130,2013-07-29 17:55:00
2:15 PM,84.2,73.4,70,30.11,10.0,SE,3.5,-,N/A,,Overcast,140,2013-07-29 18:15:00
2:35 PM,86.0,71.6,62,30.11,10.0,WSW,5.8,-,N/A,,Overcast,250,2013-07-29 18:35:00
2:53 PM,88.0,73.9,63,30.09,-9999.0,Variable,4.6,-,N/A,,Unknown,0,2013-07-29 18:53:00
2:55 PM,86.0,73.4,66,30.10,10.0,SW,5.8,-,N/A,,Overcast,220,2013-07-29 18:55:00
3:15 PM,87.8,71.6,58,30.10,10.0,SW,3.5,-,N/A,,Mostly Cloudy,220,2013-07-29 19:15:00
3:35 PM,87.8,69.8,55,30.10,10.0,SSW,5.8,-,N/A,,Scattered Clouds,210,2013-07-29 19:35:00
3:53 PM,91.0,73.0,55,30.08,-9999.0,WSW,5.8,-,N/A,,Unknown,240,2013-07-29 19:53:00
3:55 PM,89.6,71.6,55,30.09,10.0,WSW,5.8,-,N/A,,Scattered Clouds,240,2013-07-29 19:55:00
4:15 PM,87.8,71.6,58,30.09,10.0,SW,8.1,-,N/A,,Scattered Clouds,230,2013-07-29 20:15:00
4:35 PM,87.8,71.6,58,30.09,10.0,SW,9.2,-,N/A,,Clear,230,2013-07-29 20:35:00
4:53 PM,88.0,71.1,57,30.07,-9999.0,SW,10.4,-,N/A,,Unknown,220,2013-07-29 20:53:00
4:55 PM,87.8,69.8,55,30.09,10.0,SW,9.2,-,N/A,,Clear,230,2013-07-29 20:55:00
5:15 PM,87.8,69.8,55,30.08,10.0,SW,6.9,-,N/A,,Clear,220,2013-07-29 21:15:00
5:35 PM,87.8,69.8,55,30.08,10.0,SW,10.4,-,N/A,,Clear,220,2013-07-29 21:35:00
5:53 PM,89.1,72.0,57,30.07,-9999.0,SW,11.5,-,N/A,,Unknown,230,2013-07-29 21:53:00
5:55 PM,87.8,69.8,55,30.09,10.0,SW,11.5,-,N/A,,Clear,230,2013-07-29 21:55:00
6:15 PM,86.0,69.8,58,30.09,10.0,SW,10.4,-,N/A,,Clear,230,2013-07-29 22:15:00
6:35 PM,86.0,71.6,62,30.09,7.0,WSW,9.2,-,N/A,,Clear,240,2013-07-29 22:35:00
6:53 PM,87.1,72.0,61,30.07,-9999.0,SSW,10.4,-,N/A,,Unknown,210,2013-07-29 22:53:00
6:55 PM,86.0,71.6,62,30.09,10.0,SW,10.4,-,N/A,,Clear,220,2013-07-29 22:55:00
7:15 PM,86.0,71.6,62,30.10,10.0,WSW,8.1,-,N/A,,Clear,240,2013-07-29 23:15:00
7:35 PM,84.2,71.6,66,30.10,10.0,SSW,6.9,-,N/A,,Clear,210,2013-07-29 23:35:00
7:53 PM,82.9,73.0,72,30.11,-9999.0,SW,5.8,-,N/A,,Unknown,220,2013-07-29 23:53:00
7:55 PM,82.4,71.6,70,30.12,10.0,SW,5.8,-,N/A,,Clear,230,2013-07-29 23:55:00
8:15 PM,80.6,71.6,74,30.12,10.0,SW,3.5,-,N/A,,Clear,220,2013-07-30 00:15:00
8:35 PM,80.6,71.6,74,30.13,10.0,Calm,Calm,-,N/A,,Clear,0,2013-07-30 00:35:00
8:53 PM,80.1,73.0,79,30.12,-9999.0,South,3.5,-,N/A,,Unknown,180,2013-07-30 00:53:00
8:55 PM,78.8,71.6,78,30.13,10.0,Calm,Calm,-,N/A,,Clear,0,2013-07-30 00:55:00
9:15 PM,78.8,71.6,78,30.13,10.0,Calm,Calm,-,N/A,,Clear,0,2013-07-30 01:15:00
9:35 PM,77.0,71.6,83,30.13,10.0,Calm,Calm,-,N/A,,Clear,0,2013-07-30 01:35:00
9:53 PM,79.0,73.0,82,30.14,-9999.0,Calm,Calm,-,N/A,,Unknown,0,2013-07-30 01:53:00
9:55 PM,77.0,71.6,83,30.15,10.0,Calm,Calm,-,N/A,,Clear,0,2013-07-30 01:55:00
10:15 PM,77.0,71.6,83,30.16,10.0,Calm,Calm,-,N/A,,Clear,0,2013-07-30 02:15:00
10:35 PM,77.0,71.6,83,30.16,10.0,Calm,Calm,-,N/A,,Clear,0,2013-07-30 02:35:00
10:53 PM,77.0,73.0,88,30.14,-9999.0,Calm,Calm,-,N/A,,Unknown,0,2013-07-30 02:53:00
10:55 PM,75.2,71.6,89,30.16,10.0,Calm,Calm,-,N/A,,Clear,0,2013-07-30 02:55:00
11:15 PM,75.2,71.6,89,30.15,10.0,Calm,Calm,-,N/A,,Clear,0,2013-07-30 03:15:00
11:35 PM,75.2,71.6,89,30.15,10.0,Calm,Calm,-,N/A,,Clear,0,2013-07-30 03:35:00
11:53 PM,75.9,73.0,91,30.14,-9999.0,Calm,Calm,-,N/A,,Unknown,0,2013-07-30 03:53:00
11:55 PM,73.4,71.6,94,30.15,10.0,Calm,Calm,-,N/A,,Clear,0,2013-07-30 03:55:00